Location: Hohe Wand Kleine Kanzel
(47.8330°N, 16.0170°E)
Time: 15:41:24
(UTC+02:00)

Courier 1B Rocket - Pass Details

Date: 10 August 2021
Orbit: 920 x 1202 km, 28.3° (Epoch: 27 September)

Event Time Altitude Azimuth Distance (km) Brightness Sun altitude
Rises 01:39:41 0° 241° (WSW) 3,984 - -26.0°
Reaches altitude 10° 01:44:07 10° 218° (SW) 2,965 - -25.9°
Maximum altitude 01:47:35 14° 189° (S) 2,624 - -25.8°
Drops below altitude 10° 01:50:56 10° 160° (SSE) 2,861 - -25.6°
Sets 01:55:04 0° 136° (SE) 3,747 - -25.5°
